[[{"header":{"parameterUnit":"m.s-1","parameterCategory":2,"la1":30.2991,"la2":30.254,"lo1":-89.0895,"lo2":-89.0444,"dy":0.0017,"dx":0.0017,"nx":28,"ny":28,"refTime":"2024-05-23T03:00:00:Z","depth":"0","parameterNumber":2,"parameterNumberName":"U-component_of_CURRENTS"},"data":[0,0,0,0,0,0,0,0,0,0,0,0,0,0,0,0,0,0,0,0,0,0,0,0,0,0,0,0,0,0,0,0,0,0,0,0,0,0,0,0,0,0,0,0,0,0,0,0,0,0,0,0,0,0,0,0,0,0,0.2331,0.2332,0,0.2371,0.2371,0.2371,0.2386,0.2386,0.2386,0.2386,0.2398,0.2398,0.2398,0,0,0,0,0,0,0,0,0,0,0,0,0,0.2247,0.2248,0.2331,0.2332,0.2333,0.2371,0.2371,0.2371,0.2386,0.2386,0.2386,0.2386,0.2398,0.2398,0.2398,0,0,0,0,0,0,0,0,0,0,0,0,0,0.2282,0.2248,0.2331,0.2347,0.2349,0.2371,0.2371,0.2371,0.2386,0.2386,0.2386,0.2386,0.2398,0.2398,0.2398,0.2397,0,0,0.2399,0.2399,0,0,0,0,0,0,0,0,0.228,0.2285,0.2344,0.2346,0.2348,0.2376,0.2346,0.2379,0.2386,0.2369,0.2386,0.2386,0.239,0.2391,0.2394,0.2397,0.2398,0.2399,0.2399,0.24,0.24,0,0,0,0,0,0,0,0.2277,0.2283,0.2344,0.2344,0.2347,0.2344,0.2349,0.2352,0.2375,0.237,0.2372,0.2381,0.239,0.2394,0.2394,0.2398,0.2399,0.24,0.24,0.24,0.2456,0.2458,0,0,0,0,0,0,0.2279,0.2281,0.2343,0.2346,0.2317,0.2346,0.2351,0.2365,0.2376,0.2379,0.2381,0.2381,0.2393,0.2394,0.2395,0.244,0.24,0.24,0.24,0.2455,0.2457,0.2458,0,0,0,0,0,0,0.2277,0.2285,0.2341,0.2316,0.2323,0.2348,0.2362,0.2365,0.2376,0.2384,0.2386,0.2389,0.2393,0.2395,0.2412,0.2439,0.24,0.24,0.2454,0.2456,0.2457,0.25,0,0,0,0,0,0,0.2275,0.2284,0.2293,0.2316,0.2325,0.2367,0.2362,0.2366,0.2382,0.2384,0.2392,0.2393,0.2394,0.2412,0.2412,0.2439,0.24,0.2452,0.2455,0.2457,0.2497,0.2504,0.2509,0,0,0,0,0,0.2272,0.2288,0.2293,0.2301,0.2338,0.2368,0.2372,0.2387,0.2382,0.2395,0.2401,0.2393,0.2428,0.2413,0.2413,0.244,0.2451,0.2454,0.2457,0.2495,0.2502,0.2509,0,0,0,0,0,0,0.2254,0.2292,0.2298,0.2324,0.2349,0.2372,0.2385,0.239,0.2404,0.2403,0.2403,0.2405,0.2439,0.243,0.2412,0.2466,0.2441,0.2444,0.247,0.2477,0.2483,0.2483,0.2401,0,0,0,0,0,0.2255,0.2278,0.231,0.233,0.2344,0.2362,0.2375,0.2387,0.2403,0.2409,0.2415,0.2425,0.245,0.2454,0.2472,0.2488,0.2507,0.2509,0.2515,0.2519,0.2522,0.2567,0.2577,0.2468,0.2468,0.2468,0,0,0.2251,0.2276,0.2287,0.2328,0.2345,0.2371,0.237,0.2396,0.2416,0.2407,0.2431,0.2448,0.2462,0.2494,0.2507,0.2488,0.2568,0.2523,0.2527,0.2527,0.2571,0.2582,0.2592,0.247,0.247,0.2469,0,0,0.2258,0.228,0.2302,0.2328,0.2364,0.2379,0.2388,0.2415,0.2429,0.2454,0.2464,0.2494,0.2512,0.2536,0.2548,0.2593,0.2604,0.2601,0.2621,0.2666,0.2675,0.2683,0.275,0.2763,0.2595,0.2595,0.2595,0,0.2251,0.2283,0.2312,0.2343,0.236,0.2383,0.2404,0.2428,0.2457,0.2471,0.2468,0.2526,0.2536,0.2585,0.2607,0.2607,0.2639,0.2592,0.2674,0.2682,0.269,0.2755,0.277,0.2597,0.2597,0.2597,0.2596,0,0.2276,0.2302,0.2318,0.2363,0.2387,0.241,0.2446,0.2472,0.2486,0.2506,0.2558,0.258,0.2612,0.2629,0.2631,0.2696,0.2706,0.2683,0.2654,0.2703,0.277,0.2784,0.2601,0.26,0.2599,0.2598,0,0,0.2253,0.232,0.2325,0.2344,0.2395,0.2416,0.2459,0.2501,0.2534,0.2565,0.2611,0.2656,0.2668,0.2683,0.2698,0.2735,0.283,0.2732,0.2733,0.2796,0.2954,0.298,0.2998,0.282,0.2822,0.2824,0.2988,0,0.2257,0.2307,0.2339,0.2377,0.2402,0.244,0.2477,0.2522,0.2562,0.2617,0.2654,0.2706,0.2689,0.2719,0.2753,0.2821,0.2865,0.2789,0.2898,0.2902,0.2917,0.3014,0.2943,0.3084,0.3002,0.3004,0.3006,0,0.2262,0.2298,0.2329,0.2385,0.2399,0.2421,0.2483,0.2527,0.2612,0.265,0.2705,0.2742,0.2822,0.2793,0.2916,0.287,0.2913,0.2954,0.296,0.2976,0.2954,0.3016,0.3113,0.3059,0.3028,0.3026,0.3025,0,0.2222,0.2286,0.2303,0.2322,0.2391,0.2408,0.2449,0.2527,0.2575,0.2682,0.2744,0.2815,0.2888,0.2939,0.303,0.2979,0.3177,0.311,0.3175,0.3178,0.3133,0.3129,0.3184,0.3189,0.3188,0.3188,0.3187,0,0.2205,0.2221,0.2283,0.2294,0.2319,0.2383,0.2426,0.249,0.2592,0.2669,0.2756,0.2849,0.2929,0.3046,0.3082,0.3208,0.322,0.3212,0.3229,0.315,0.3145,0.3106,0.3072,0.3194,0.3192,0.3191,0.319,0,0.2147,0.219,0.2213,0.2278,0.2295,0.2315,0.2403,0.2453,0.2568,0.2683,0.2728,0.2905,0.3077,0.3172,0.3304,0.3302,0.3324,0.3426,0.3347,0.3351,0.3313,0.3284,0.3208,0.3104,0.351,0.3512,0.3513,0,0.2117,0.2124,0.2179,0.2196,0.2217,0.2263,0.2303,0.2415,0.2488,0.2719,0.2784,0.3,0.314,0.338,0.3455,0.3564,0.342,0.3526,0.3395,0.3339,0.3318,0.3128,0.3029,0.3368,0.3368,0.3368,0.3369,0,0.206,0.2075,0.21,0.2138,0.2168,0.2207,0.2286,0.2333,0.2498,0.2624,0.2826,0.2961,0.3246,0.3365,0.3538,0.3569,0.3371,0.3531,0.3483,0.3237,0.3022,0.292,0.325,0.337,0.337,0.337,0.3369,0.3369,0.2012,0.2017,0.2057,0.2085,0.2119,0.2155,0.217,0.2279,0.2389,0.2574,0.2769,0.2964,0.322,0.3471,0.3486,0.3505,0.3411,0.3413,0.3397,0.3219,0.3061,0.3415,0.3538,0.3539,0.354,0.354,0.3541,0,0.1972,0.1993,0.2014,0.2042,0.2048,0.2092,0.2163,0.2181,0.2278,0.2502,0.2671,0.2968,0.3133,0.3296,0.3463,0.3397,0.316,0.3314,0.3021,0.2938,0.3293,0.323,0.3278,0.3278,0.3278,0.3278,0.3278,0.3278,0.1957,0.1967,0.1982,0.197,0.1985,0.1969,0.1991,0.2034,0.2165,0.2364,0.2552,0.2758,0.3101,0.3371,0.3391,0.3304,0.3029,0.2929,0.2865,0.3143,0.3148,0.3153,0.3085,0.3102,0.3101,0.2362,0.2357,0.2353]},{"header":{"parameterUnit":"m.s-1","parameterCategory":2,"la1":30.2991,"la2":30.254,"lo1":-89.0895,"lo2":-89.0444,"dy":0.0017,"dx":0.0017,"nx":28,"ny":28,"refTime":"2024-05-23T03:00:00:Z","depth":"0","parameterNumber":3,"parameterNumberName":"V-component_of_CURRENTS"},"data":[0,0,0,0,0,0,0,0,0,0,0,0,0,0,0,0,0,0,0,0,0,0,0,0,0,0,0,0,0,0,0,0,0,0,0,0,0,0,0,0,0,0,0,0,0,0,0,0,0,0,0,0,0,0,0,0,0,0,0.0035,0.0034,0,-0.0044,-0.0045,-0.0046,-0.0099,-0.01,-0.01,-0.01,-0.0234,-0.0237,-0.024,0,0,0,0,0,0,0,0,0,0,0,0,0,0.0091,0.009,0.0035,0.0034,0.0033,-0.0044,-0.0045,-0.0046,-0.0099,-0.01,-0.01,-0.01,-0.0233,-0.0237,-0.024,0,0,0,0,0,0,0,0,0,0,0,0,0,0.0045,0.009,0.0035,-0.0002,-0.0007,-0.0043,-0.0045,-0.0046,-0.0099,-0.01,-0.01,-0.0101,-0.0231,-0.0236,-0.0241,-0.026,0,0,-0.0256,-0.0258,0,0,0,0,0,0,0,0,0.0047,0.0043,0.0004,0.0,-0.0005,-0.0062,-0.0074,-0.012,-0.0099,-0.0064,-0.01,-0.0101,-0.0181,-0.019,-0.0203,-0.0267,-0.0272,-0.0256,-0.0259,-0.0261,-0.0263,0,0,0,0,0,0,0,0.0051,0.0045,0.0003,0.0003,-0.0002,-0.0032,-0.0039,-0.0083,-0.012,-0.0067,-0.0071,-0.0079,-0.0184,-0.0198,-0.0207,-0.0274,-0.0256,-0.026,-0.0263,-0.0265,-0.0363,-0.0363,0,0,0,0,0,0,0.0064,0.0049,0.0006,0.0001,0.0021,-0.0032,-0.004,-0.0043,-0.0119,-0.013,-0.0079,-0.0081,-0.019,-0.0201,-0.0212,-0.0238,-0.0261,-0.0266,-0.0268,-0.0364,-0.0363,-0.0363,0,0,0,0,0,0,0.0066,0.0062,0.0009,0.0023,0.0014,-0.0032,-0.0036,-0.0045,-0.0061,-0.0126,-0.0139,-0.0086,-0.0191,-0.0205,-0.0252,-0.0243,-0.0268,-0.0272,-0.0364,-0.0363,-0.0363,-0.0291,0,0,0,0,0,0,0.0068,0.0063,0.0066,0.0024,0.0014,-0.0008,-0.0036,-0.0046,-0.0065,-0.0069,-0.0137,-0.015,-0.0192,-0.0244,-0.0257,-0.0251,-0.0276,-0.0364,-0.0364,-0.0363,-0.0294,-0.0288,-0.0283,0,0,0,0,0,0.007,0.0079,0.0067,0.0062,0.002,-0.0008,-0.0016,-0.0051,-0.0064,-0.0068,-0.0116,-0.0148,-0.0249,-0.0248,-0.0263,-0.0258,-0.0365,-0.0364,-0.0363,-0.0296,-0.0289,-0.0283,0,0,0,0,0,0,0.0105,0.0074,0.0059,0.0058,0.0029,-0.0017,-0.0022,-0.0046,-0.0085,-0.009,-0.0151,-0.0167,-0.0203,-0.0241,-0.0238,-0.0284,-0.0309,-0.0312,-0.0253,-0.0247,-0.0242,-0.0219,-0.028,0,0,0,0,0,0.0115,0.0115,0.0076,0.0076,0.0065,0.0024,0.0008,-0.0015,-0.0056,-0.0073,-0.012,-0.0168,-0.021,-0.0237,-0.0279,-0.0309,-0.0335,-0.0313,-0.0308,-0.0303,-0.0294,-0.033,-0.0327,-0.0361,-0.0361,-0.0361,0,0,0.0128,0.0112,0.011,0.0083,0.006,0.005,0.0013,-0.0004,-0.0013,-0.0082,-0.0108,-0.0153,-0.0214,-0.0245,-0.0263,-0.0277,-0.0305,-0.0302,-0.0298,-0.0291,-0.0329,-0.0326,-0.0323,-0.036,-0.036,-0.036,0,0,0.0156,0.014,0.0149,0.013,0.0101,0.0074,0.0072,0.0029,0.001,-0.0021,-0.0069,-0.011,-0.0174,-0.0215,-0.0244,-0.0237,-0.0274,-0.0246,-0.0205,-0.024,-0.0237,-0.0235,-0.0249,-0.0249,-0.0245,-0.0245,-0.0245,0,0.0173,0.0179,0.0147,0.0149,0.0139,0.0089,0.0094,0.0067,0.0015,0.0004,-0.0019,-0.0103,-0.0159,-0.0195,-0.0193,-0.0224,-0.0241,-0.0223,-0.0232,-0.0231,-0.023,-0.0245,-0.0246,-0.0241,-0.0242,-0.0242,-0.0243,0,0.0205,0.0209,0.0213,0.0201,0.0184,0.018,0.014,0.0125,0.0096,0.0067,0.0031,-0.0043,-0.0089,-0.0114,-0.0156,-0.0174,-0.0186,-0.0219,-0.0244,-0.0222,-0.0239,-0.0241,-0.0236,-0.0238,-0.0239,-0.024,0,0,0.0245,0.0239,0.024,0.0248,0.0213,0.0206,0.0194,0.0171,0.0179,0.0119,0.0121,0.0037,0.0004,-0.0031,-0.0087,-0.0123,-0.0136,-0.0161,-0.0165,-0.0166,-0.0192,-0.0195,-0.0198,-0.0169,-0.0169,-0.0169,-0.0201,0,0.028,0.0305,0.0287,0.0306,0.0314,0.0273,0.0272,0.0245,0.0217,0.0206,0.0131,0.011,0.0034,0.0023,-0.003,-0.0105,-0.014,-0.0123,-0.0221,-0.0223,-0.0222,-0.0201,-0.0191,-0.0218,-0.0203,-0.0204,-0.0204,0,0.0317,0.033,0.0361,0.0371,0.0372,0.0377,0.0375,0.037,0.0336,0.0318,0.0275,0.0221,0.016,0.0097,-0.0025,-0.0007,-0.0091,-0.0155,-0.0159,-0.0188,-0.023,-0.0242,-0.0223,-0.0416,-0.0208,-0.0207,-0.0207,0,0.0364,0.0382,0.0414,0.0413,0.0414,0.0429,0.0431,0.041,0.0434,0.0401,0.0424,0.032,0.0303,0.0172,0.0034,0.0008,-0.0087,-0.0146,-0.0228,-0.0229,-0.0253,-0.0255,-0.0426,-0.023,-0.023,-0.023,-0.023,0,0.0408,0.0431,0.0446,0.0463,0.0516,0.0493,0.055,0.0535,0.0549,0.0611,0.0498,0.0532,0.0324,0.0243,0.0084,-0.006,-0.0052,-0.0209,-0.0237,-0.0226,-0.0226,-0.0422,-0.0524,-0.0231,-0.0231,-0.0231,-0.0231,0,0.0452,0.0457,0.0501,0.0526,0.0543,0.0583,0.0645,0.0696,0.0693,0.0774,0.078,0.0703,0.0601,0.0395,0.0199,0.0034,-0.0229,-0.0181,-0.0141,-0.0165,-0.044,-0.0536,-0.071,-0.0799,-0.0285,-0.0286,-0.0286,0,0.0477,0.0507,0.0558,0.0607,0.0627,0.069,0.0751,0.0767,0.0842,0.0901,0.0963,0.0886,0.0865,0.0569,0.0252,-0.0025,-0.0211,-0.0198,-0.0267,-0.0444,-0.0574,-0.0644,-0.0711,-0.0267,-0.0267,-0.0267,-0.0267,0,0.054,0.0559,0.0604,0.0704,0.078,0.0868,0.0962,0.1039,0.1095,0.1168,0.1265,0.1254,0.0972,0.0685,0.0287,0.0086,-0.0334,-0.0208,-0.0413,-0.0585,-0.0651,-0.0752,-0.0247,-0.0267,-0.0267,-0.0267,-0.0267,-0.0267,0.0598,0.0655,0.0732,0.0824,0.092,0.1058,0.1148,0.1257,0.1395,0.1524,0.15,0.1519,0.1086,0.0538,0.0227,-0.034,-0.035,-0.0519,-0.0621,-0.0675,-0.077,-0.0249,-0.0292,-0.0293,-0.0293,-0.0293,-0.0293,0,0.0696,0.0762,0.0855,0.0985,0.1105,0.1132,0.1307,0.1398,0.157,0.1689,0.176,0.158,0.1045,0.05,-0.0266,-0.068,-0.084,-0.0904,-0.1026,-0.1078,-0.0634,-0.0644,-0.0739,-0.0738,-0.0738,-0.0738,-0.0738,-0.0738,0.0762,0.0877,0.0923,0.1133,0.1223,0.1393,0.1495,0.1619,0.1727,0.1866,0.1896,0.1881,0.1486,0.0097,-0.0867,-0.1097,-0.1379,-0.1438,-0.1592,-0.1322,-0.1295,-0.1269,-0.1305,-0.1536,-0.1537,-0.1988,-0.1993,-0.1997]}],[{"header":{"parameterUnit":"m.s-1","parameterCategory":2,"la1":30.2991,"la2":30.254,"lo1":-89.0895,"lo2":-89.0444,"dy":0.0017,"dx":0.0017,"nx":28,"ny":28,"refTime":"2024-05-23T03:00:00:Z","depth":"2","parameterNumber":2,"parameterNumberName":"U-component_of_CURRENTS"},"data":[0,0,0,0,0,0,0,0,0,0,0,0,0,0,0,0,0,0,0,0,0,0,0,0,0,0,0,0,0,0,0,0,0,0,0,0,0,0,0,0,0,0,0,0,0,0,0,0,0,0,0,0,0,0,0,0,0,0,0.2263,0.2264,0,0.2303,0.2303,0.2304,0.233,0.233,0.2331,0.2331,0.2371,0.2372,0.2372,0,0,0,0,0,0,0,0,0,0,0,0,0,0.2185,0.2186,0.2263,0.2264,0.2265,0.2303,0.2303,0.2304,0.233,0.233,0.2331,0.2331,0.2371,0.2372,0.2373,0,0,0,0,0,0,0,0,0,0,0,0,0,0.222,0.2187,0.2263,0.2283,0.2285,0.2303,0.2303,0.2304,0.233,0.233,0.2331,0.2331,0.237,0.2371,0.2373,0.2372,0,0,0.2376,0.2377,0,0,0,0,0,0,0,0,0.2218,0.2223,0.228,0.2282,0.2284,0.2313,0.229,0.2327,0.233,0.2312,0.2331,0.2331,0.2352,0.2355,0.236,0.2374,0.2375,0.2376,0.2377,0.2378,0.2378,0,0,0,0,0,0,0,0.2216,0.2221,0.2278,0.228,0.2283,0.2281,0.2287,0.2297,0.2328,0.2313,0.2316,0.2322,0.2353,0.2358,0.2361,0.2376,0.2376,0.2378,0.2378,0.2379,0.2443,0.2444,0,0,0,0,0,0,0.2214,0.2219,0.2277,0.2279,0.2253,0.2283,0.2289,0.2302,0.2328,0.2333,0.2321,0.2323,0.2356,0.2359,0.2362,0.2418,0.2378,0.2379,0.238,0.2442,0.2443,0.2444,0,0,0,0,0,0,0.2213,0.2219,0.2275,0.225,0.2258,0.2284,0.2299,0.2303,0.2322,0.2334,0.2339,0.2338,0.2357,0.2361,0.2383,0.2417,0.2379,0.238,0.2441,0.2442,0.2443,0.2493,0,0,0,0,0,0,0.221,0.2219,0.2229,0.2251,0.2259,0.23,0.2299,0.2304,0.2325,0.2328,0.235,0.2353,0.2357,0.2382,0.2385,0.2418,0.2381,0.2439,0.2441,0.2443,0.249,0.2496,0.2501,0,0,0,0,0,0.2207,0.2223,0.223,0.2237,0.2273,0.2301,0.2306,0.2324,0.2325,0.2341,0.2351,0.2353,0.2396,0.2383,0.2386,0.2421,0.2438,0.2441,0.2443,0.2487,0.2495,0.2501,0,0,0,0,0,0,0.2194,0.2228,0.2236,0.2261,0.2285,0.2307,0.2323,0.2331,0.235,0.2353,0.236,0.2365,0.2404,0.2399,0.2384,0.2444,0.242,0.2423,0.2453,0.2459,0.2465,0.2459,0.2382,0,0,0,0,0,0.2196,0.2219,0.2246,0.2268,0.2282,0.2303,0.2316,0.2329,0.2347,0.2357,0.2371,0.2387,0.2413,0.2424,0.2443,0.2466,0.2479,0.2492,0.2497,0.2502,0.25,0.2539,0.2548,0.2451,0.2451,0.2451,0,0,0.2194,0.2218,0.2229,0.2267,0.2287,0.231,0.2313,0.234,0.2359,0.2357,0.2388,0.2409,0.2424,0.2461,0.2477,0.2461,0.2542,0.2505,0.2509,0.2504,0.2542,0.2552,0.256,0.2453,0.2452,0.2452,0,0,0.2206,0.2229,0.2252,0.2274,0.2309,0.2322,0.2333,0.2361,0.2378,0.2406,0.2418,0.2451,0.248,0.2502,0.2516,0.2558,0.2573,0.2572,0.2592,0.2631,0.2639,0.2646,0.2698,0.271,0.2569,0.2569,0.2569,0,0.2202,0.2234,0.2262,0.229,0.2304,0.2329,0.2348,0.2373,0.2403,0.242,0.2422,0.2484,0.25,0.2549,0.257,0.2572,0.26,0.2568,0.2638,0.2646,0.2652,0.2704,0.2716,0.2572,0.2572,0.2571,0.2571,0,0.2228,0.2254,0.2271,0.2312,0.2333,0.2355,0.2387,0.2413,0.2433,0.2454,0.2509,0.2534,0.2568,0.259,0.2595,0.2656,0.2665,0.2647,0.2623,0.2665,0.2717,0.2729,0.2576,0.2575,0.2574,0.2573,0,0,0.2213,0.2275,0.228,0.2296,0.2342,0.2359,0.2399,0.2438,0.2471,0.2507,0.2552,0.2602,0.2619,0.2635,0.2654,0.2689,0.2774,0.2692,0.2692,0.2745,0.2881,0.2874,0.2887,0.2773,0.2775,0.2777,0.2906,0,0.2221,0.2265,0.2294,0.2326,0.2347,0.238,0.2415,0.2456,0.2497,0.2552,0.2591,0.2647,0.2636,0.267,0.2702,0.2766,0.2804,0.2742,0.2829,0.2832,0.2822,0.2899,0.2677,0.2772,0.2918,0.292,0.2921,0,0.2226,0.2258,0.2285,0.2333,0.2345,0.2366,0.2421,0.2461,0.2543,0.2583,0.2637,0.2677,0.2752,0.2731,0.2839,0.2805,0.2842,0.2879,0.2884,0.2864,0.2846,0.2748,0.2788,0.2941,0.2939,0.2938,0.2936,0,0.2188,0.2245,0.2261,0.2276,0.2336,0.2354,0.2393,0.2466,0.2515,0.2613,0.2675,0.2739,0.2813,0.2854,0.2938,0.2896,0.3064,0.301,0.3035,0.3036,0.2855,0.2836,0.3072,0.3072,0.3072,0.3071,0.3071,0,0.2171,0.2184,0.2244,0.2252,0.2277,0.2334,0.2378,0.2435,0.2536,0.2613,0.269,0.2777,0.2851,0.2953,0.298,0.3071,0.3098,0.3061,0.3073,0.2869,0.2851,0.2988,0.2976,0.3076,0.3075,0.3074,0.3073,0,0.2115,0.2156,0.2177,0.2238,0.2255,0.2275,0.2364,0.2414,0.2525,0.2636,0.2679,0.2839,0.298,0.3058,0.3169,0.3151,0.3218,0.3234,0.3006,0.2989,0.3146,0.3136,0.3259,0.326,0.3261,0.3262,0.3262,0,0.2086,0.2093,0.2147,0.2166,0.2189,0.2235,0.2275,0.2384,0.2454,0.2672,0.2733,0.2922,0.303,0.3213,0.3234,0.3295,0.3302,0.3104,0.2966,0.3168,0.3168,0.3156,0.3145,0.2754,0.2751,0.2748,0.2745,0,0.2033,0.2052,0.2077,0.2119,0.2153,0.2191,0.2268,0.2314,0.2471,0.2581,0.2756,0.2867,0.3073,0.3055,0.3162,0.3149,0.307,0.3046,0.3329,0.2746,0.2704,0.27,0.2703,0.2719,0.2722,0.2724,0.2725,0.2726,0.1992,0.2001,0.2046,0.2079,0.2118,0.2155,0.2163,0.2261,0.2356,0.2486,0.2652,0.274,0.2837,0.2885,0.285,0.2831,0.3017,0.2857,0.2861,0.2869,0.2792,0.2754,0.2765,0.2768,0.2771,0.2773,0.2775,0,0.1964,0.1989,0.2014,0.2053,0.2068,0.2109,0.2165,0.2156,0.2223,0.2355,0.2452,0.2329,0.2382,0.2477,0.2428,0.2466,0.2378,0.2351,0.2201,0.2234,0.2261,0.2145,0.195,0.1947,0.1944,0.1941,0,0,0.1954,0.1974,0.1993,0.2003,0.2023,0.2001,0.201,0.1999,0.2056,0.2038,0.2057,0.2242,0.2416,0.2121,0.2133,0.2033,0.2095,0.1958,0.2636,0.2494,0.2515,0.2594,0.2461,0,0,0,0,0]},{"header":{"parameterUnit":"m.s-1","parameterCategory":2,"la1":30.2991,"la2":30.254,"lo1":-89.0895,"lo2":-89.0444,"dy":0.0017,"dx":0.0017,"nx":28,"ny":28,"refTime":"2024-05-23T03:00:00:Z","depth":"2","parameterNumber":3,"parameterNumberName":"V-component_of_CURRENTS"},"data":[0,0,0,0,0,0,0,0,0,0,0,0,0,0,0,0,0,0,0,0,0,0,0,0,0,0,0,0,0,0,0,0,0,0,0,0,0,0,0,0,0,0,0,0,0,0,0,0,0,0,0,0,0,0,0,0,0,0,-0.0075,-0.0076,0,-0.0151,-0.0152,-0.0153,-0.0202,-0.0202,-0.0202,-0.0202,-0.0329,-0.0332,-0.0335,0,0,0,0,0,0,0,0,0,0,0,0,0,-0.0026,-0.0026,-0.0075,-0.0076,-0.0077,-0.0151,-0.0152,-0.0153,-0.0201,-0.0202,-0.0202,-0.0202,-0.0328,-0.0331,-0.0335,0,0,0,0,0,0,0,0,0,0,0,0,0,-0.0069,-0.0026,-0.0075,-0.011,-0.0114,-0.0151,-0.0152,-0.0153,-0.0201,-0.0202,-0.0202,-0.0203,-0.0326,-0.0331,-0.0336,-0.0356,0,0,-0.035,-0.0352,0,0,0,0,0,0,0,0,-0.0067,-0.0071,-0.0104,-0.0108,-0.0112,-0.0167,-0.0181,-0.0224,-0.0201,-0.0168,-0.0202,-0.0203,-0.0279,-0.0287,-0.03,-0.0362,-0.0367,-0.035,-0.0353,-0.0355,-0.0356,0,0,0,0,0,0,0,-0.0063,-0.0068,-0.0106,-0.0105,-0.011,-0.014,-0.0146,-0.0189,-0.0222,-0.0171,-0.0175,-0.0183,-0.0282,-0.0296,-0.0304,-0.0369,-0.035,-0.0354,-0.0357,-0.0359,-0.0457,-0.0457,0,0,0,0,0,0,-0.005,-0.0065,-0.0103,-0.0108,-0.009,-0.014,-0.0147,-0.0149,-0.022,-0.0231,-0.0182,-0.0185,-0.0288,-0.0298,-0.0309,-0.0331,-0.0355,-0.0359,-0.0362,-0.0457,-0.0457,-0.0457,0,0,0,0,0,0,-0.0049,-0.0053,-0.01,-0.0088,-0.0097,-0.014,-0.0142,-0.015,-0.0164,-0.0228,-0.024,-0.0187,-0.0288,-0.0302,-0.0347,-0.0336,-0.0361,-0.0366,-0.0457,-0.0457,-0.0457,-0.038,0,0,0,0,0,0,-0.0047,-0.0052,-0.0047,-0.0087,-0.0097,-0.0116,-0.0142,-0.0152,-0.0168,-0.0172,-0.0236,-0.0248,-0.029,-0.034,-0.0352,-0.0343,-0.0369,-0.0458,-0.0457,-0.0457,-0.0382,-0.0377,-0.0372,0,0,0,0,0,-0.0045,-0.0035,-0.0046,-0.0051,-0.0089,-0.0115,-0.0123,-0.0156,-0.0167,-0.017,-0.0216,-0.0246,-0.0346,-0.0344,-0.0358,-0.035,-0.0458,-0.0457,-0.0457,-0.0385,-0.0378,-0.0372,0,0,0,0,0,0,-0.0011,-0.004,-0.0053,-0.0052,-0.0079,-0.0123,-0.0127,-0.015,-0.0187,-0.019,-0.025,-0.0266,-0.0299,-0.0337,-0.0333,-0.0378,-0.0404,-0.0407,-0.0345,-0.0339,-0.0333,-0.031,-0.0373,0,0,0,0,0,-0.0,0.0001,-0.0036,-0.0034,-0.0044,-0.0083,-0.0097,-0.0119,-0.0158,-0.0174,-0.0219,-0.0266,-0.0308,-0.0333,-0.0375,-0.0403,-0.0432,-0.0406,-0.0401,-0.0396,-0.0387,-0.0425,-0.0422,-0.0455,-0.0455,-0.0455,0,0,0.0013,-0.0002,-0.0003,-0.0027,-0.0048,-0.0056,-0.0092,-0.0106,-0.0114,-0.0183,-0.0205,-0.0251,-0.0312,-0.0341,-0.0359,-0.0372,-0.04,-0.0396,-0.0391,-0.0385,-0.0424,-0.0421,-0.0418,-0.0455,-0.0455,-0.0455,0,0,0.0043,0.0028,0.004,0.0021,-0.0005,-0.0031,-0.0032,-0.0072,-0.0089,-0.0119,-0.0167,-0.0206,-0.0269,-0.0309,-0.0338,-0.0331,-0.037,-0.0341,-0.0298,-0.0334,-0.0331,-0.0329,-0.035,-0.035,-0.0339,-0.0338,-0.0338,0,0.0061,0.0068,0.0038,0.0041,0.0031,-0.0015,-0.0009,-0.0034,-0.0084,-0.0094,-0.0116,-0.0199,-0.0253,-0.0289,-0.0286,-0.0318,-0.0338,-0.0315,-0.0326,-0.0324,-0.0324,-0.0346,-0.0347,-0.0335,-0.0335,-0.0336,-0.0336,0,0.0094,0.0099,0.0105,0.0095,0.0079,0.0077,0.0038,0.0025,-0.0001,-0.0029,-0.0064,-0.0136,-0.0183,-0.0206,-0.0247,-0.0265,-0.0281,-0.0312,-0.0336,-0.0315,-0.034,-0.0343,-0.0329,-0.0331,-0.0332,-0.0333,0,0,0.0136,0.0131,0.0133,0.014,0.0108,0.0101,0.0092,0.0071,0.0078,0.0024,0.0023,-0.0056,-0.0087,-0.0122,-0.0177,-0.0213,-0.0229,-0.0252,-0.0255,-0.0262,-0.0293,-0.0311,-0.0316,-0.0259,-0.026,-0.026,-0.0308,0,0.0172,0.0197,0.0179,0.0199,0.0207,0.0168,0.0168,0.0142,0.0115,0.0103,0.0033,0.001,-0.0058,-0.0071,-0.0119,-0.02,-0.0234,-0.0211,-0.0322,-0.0325,-0.0336,-0.032,-0.029,-0.0331,-0.0311,-0.0312,-0.0312,0,0.021,0.0222,0.0253,0.026,0.0261,0.0267,0.0264,0.0258,0.0225,0.0207,0.0167,0.0113,0.0053,-0.0003,-0.0126,-0.0106,-0.0189,-0.0254,-0.0259,-0.0304,-0.0348,-0.0353,-0.0338,-0.0318,-0.0317,-0.0317,-0.0317,0,0.0254,0.0272,0.0303,0.0302,0.0302,0.0317,0.0318,0.0297,0.0316,0.0282,0.0299,0.0201,0.0178,0.0054,-0.0085,-0.0103,-0.0212,-0.0261,-0.0355,-0.0357,-0.0367,-0.037,-0.0343,-0.0343,-0.0343,-0.0343,-0.0343,0,0.0296,0.0319,0.0334,0.0351,0.0399,0.0377,0.0428,0.0412,0.0422,0.0471,0.0366,0.0382,0.0193,0.0106,-0.0044,-0.0197,-0.0184,-0.0339,-0.0371,-0.0339,-0.0338,-0.0361,-0.0363,-0.0345,-0.0344,-0.0344,-0.0343,0,0.0338,0.0345,0.0386,0.0409,0.0424,0.0461,0.0514,0.0556,0.0552,0.0616,0.0618,0.0528,0.0409,0.0218,0.0024,-0.0123,-0.0283,-0.0341,-0.0283,-0.0308,-0.0414,-0.0411,-0.0457,-0.0458,-0.0459,-0.0459,-0.046,0,0.036,0.0389,0.0438,0.0481,0.05,0.0557,0.0608,0.0621,0.0679,0.0717,0.076,0.0667,0.0606,0.0305,0.0027,-0.0235,-0.027,-0.0372,-0.0417,-0.0399,-0.0426,-0.0422,-0.0418,-0.0397,-0.0397,-0.0397,-0.0397,0,0.0412,0.0432,0.0471,0.0562,0.0628,0.0703,0.0781,0.0837,0.0881,0.0926,0.097,0.0924,0.065,0.0371,0.0012,-0.0164,-0.0335,-0.0382,-0.0375,-0.0374,-0.0348,-0.0372,-0.037,-0.0397,-0.0397,-0.0397,-0.0397,-0.0397,0.0456,0.0502,0.0571,0.0654,0.0746,0.0854,0.0906,0.0991,0.108,0.1134,0.1102,0.1041,0.0747,0.0269,-0.0033,-0.0341,-0.0342,-0.0452,-0.045,-0.0448,-0.0434,-0.0411,-0.0469,-0.0469,-0.0469,-0.047,-0.047,0,0.0521,0.0581,0.0662,0.0772,0.0877,0.092,0.1033,0.1063,0.1159,0.1219,0.1219,0.0948,0.0648,0.0332,-0.0131,-0.0423,-0.0442,-0.0498,-0.046,-0.0458,-0.0456,-0.0441,-0.0478,-0.0479,-0.048,-0.0481,0,0,0.0563,0.0653,0.0694,0.0871,0.0961,0.1088,0.1146,0.118,0.1222,0.122,0.1208,0.1119,0.0762,0.0425,0.0035,-0.0217,-0.027,-0.0265,-0.0228,-0.0135,-0.0129,-0.0399,-0.0369,0,0,0,0,0]}],[{"header":{"parameterUnit":"m.s-1","parameterCategory":2,"la1":30.2991,"la2":30.254,"lo1":-89.0895,"lo2":-89.0444,"dy":0.0017,"dx":0.0017,"nx":28,"ny":28,"refTime":"2024-05-23T03:00:00:Z","depth":"4","parameterNumber":2,"parameterNumberName":"U-component_of_CURRENTS"},"data":[0,0,0,0,0,0,0,0,0,0,0,0,0,0,0,0,0,0,0,0,0,0,0,0,0,0,0,0,0,0,0,0,0,0,0,0,0,0,0,0,0,0,0,0,0,0,0,0,0,0,0,0,0,0,0,0,0,0,0.137,0.137,0,0.1428,0.1429,0.1429,0.1484,0.1485,0.1486,0.1487,0.1539,0.154,0.154,0,0,0,0,0,0,0,0,0,0,0,0,0,0.1284,0.1285,0.137,0.1371,0.1372,0.1428,0.1429,0.1429,0.1484,0.1485,0.1486,0.1487,0.1539,0.154,0.154,0,0,0,0,0,0,0,0,0,0,0,0,0,0.1327,0.1285,0.1369,0.1407,0.1412,0.1428,0.1429,0.1429,0.1484,0.1485,0.1486,0.1488,0.1539,0.154,0.154,0.1518,0,0,0.1543,0.1543,0,0,0,0,0,0,0,0,0.1325,0.133,0.1401,0.1405,0.141,0.1452,0.1418,0.146,0.1483,0.1454,0.1487,0.1488,0.151,0.1513,0.1518,0.1521,0.1523,0.1543,0.1543,0.1544,0.1544,0,0,0,0,0,0,0,0.1322,0.1328,0.139,0.1402,0.1407,0.1414,0.1422,0.1426,0.1471,0.1456,0.1461,0.1471,0.1512,0.1517,0.152,0.1524,0.1543,0.1544,0.1544,0.1544,0.1626,0.1628,0,0,0,0,0,0,0.1319,0.1325,0.1389,0.1392,0.1372,0.1415,0.1424,0.1435,0.1472,0.1479,0.147,0.1474,0.1515,0.1519,0.1522,0.1606,0.1544,0.1545,0.1545,0.1625,0.1627,0.1629,0,0,0,0,0,0,0.1317,0.1324,0.1386,0.1362,0.1371,0.1416,0.1428,0.1436,0.1477,0.1483,0.149,0.1507,0.1516,0.1521,0.1555,0.1604,0.1545,0.1546,0.1623,0.1625,0.1628,0.1705,0,0,0,0,0,0,0.1314,0.1323,0.1342,0.1362,0.1372,0.1421,0.1427,0.1436,0.148,0.1486,0.1516,0.1521,0.1518,0.1554,0.1556,0.1604,0.1546,0.1621,0.1624,0.1627,0.17,0.171,0.1718,0,0,0,0,0,0.1311,0.1326,0.1343,0.1351,0.1393,0.1423,0.1429,0.1463,0.148,0.1503,0.1524,0.1521,0.1576,0.1555,0.1557,0.1608,0.1619,0.1623,0.1627,0.1696,0.1708,0.1718,0,0,0,0,0,0,0.1298,0.1334,0.1353,0.1379,0.1412,0.1434,0.1459,0.148,0.1514,0.1529,0.1532,0.1538,0.1591,0.1582,0.1559,0.1641,0.1601,0.1606,0.1654,0.1664,0.1673,0.1675,0.1547,0,0,0,0,0,0.1303,0.1328,0.1361,0.1387,0.1406,0.1438,0.146,0.1486,0.1512,0.1531,0.1553,0.1576,0.1601,0.162,0.1636,0.1669,0.1673,0.1706,0.1715,0.1723,0.1726,0.1772,0.1786,0.1641,0.1641,0.1641,0,0,0.1305,0.1329,0.1345,0.1387,0.1414,0.1448,0.1455,0.15,0.1537,0.1528,0.159,0.1608,0.1617,0.1664,0.1688,0.1668,0.1769,0.1728,0.1734,0.1733,0.1778,0.1792,0.1804,0.1644,0.1643,0.1643,0,0,0.1312,0.1345,0.1368,0.1402,0.1454,0.1474,0.1496,0.1541,0.1575,0.1624,0.1636,0.1681,0.1715,0.1736,0.1747,0.181,0.1814,0.1829,0.1876,0.1922,0.1934,0.1945,0.1979,0.1992,0.1833,0.1833,0.1833,0,0.1316,0.135,0.138,0.1414,0.1449,0.1491,0.1529,0.1563,0.1618,0.1652,0.1657,0.1737,0.1748,0.1806,0.1835,0.1832,0.1856,0.1835,0.1934,0.1945,0.1954,0.1986,0.2,0.1837,0.1837,0.1837,0.1836,0,0.1334,0.1377,0.1396,0.1454,0.1494,0.1535,0.1587,0.1638,0.1684,0.1722,0.1803,0.182,0.187,0.1889,0.1882,0.1965,0.196,0.1941,0.1907,0.1974,0.2003,0.2016,0.1843,0.1842,0.1841,0.184,0,0,0.1298,0.139,0.1401,0.1445,0.1524,0.1556,0.1625,0.1696,0.1754,0.1815,0.1888,0.1941,0.1969,0.1983,0.1994,0.2033,0.2126,0.2026,0.2026,0.2059,0.2235,0.2101,0.2102,0.2134,0.2137,0.2139,0.2231,0,0.1307,0.1375,0.1421,0.15,0.1543,0.1612,0.1672,0.1748,0.1812,0.1893,0.194,0.2011,0.2,0.2041,0.2082,0.2117,0.2163,0.2103,0.2165,0.2166,0.2039,0.2113,0.2147,0.2241,0.2243,0.2246,0.2247,0,0.1306,0.1356,0.143,0.1538,0.1564,0.1622,0.1736,0.18,0.1912,0.1964,0.2045,0.2085,0.2167,0.2142,0.224,0.2209,0.2235,0.225,0.2253,0.2106,0.2055,0.2157,0.227,0.2268,0.2266,0.2265,0.2263,0,0.126,0.1364,0.1426,0.1463,0.1584,0.1643,0.1717,0.1831,0.1889,0.2025,0.2079,0.2176,0.2234,0.2287,0.2324,0.2302,0.2417,0.2384,0.2286,0.2277,0.2335,0.2322,0.2455,0.2455,0.2455,0.2454,0.2454,0,0.1242,0.1297,0.1419,0.1455,0.154,0.164,0.1739,0.1825,0.1943,0.2013,0.2122,0.2174,0.2277,0.2345,0.2367,0.2365,0.2457,0.2307,0.2296,0.2366,0.2355,0.2344,0.233,0.2458,0.2457,0.2456,0.2456,0,0.1182,0.1261,0.1341,0.1475,0.1522,0.1591,0.1736,0.18,0.1928,0.2021,0.2068,0.2202,0.2291,0.2368,0.2458,0.2403,0.2423,0.24,0.2483,0.2473,0.2244,0.2233,0.2299,0.2295,0.2292,0.2289,0.2287,0,0.1158,0.1192,0.1334,0.1381,0.145,0.156,0.163,0.1776,0.1837,0.201,0.2039,0.2177,0.225,0.2273,0.2365,0.2411,0.2382,0.238,0.2295,0.2247,0.2231,0.2225,0.2219,0.2282,0.2281,0.228,0.2279,0,0.1101,0.1159,0.1222,0.1318,0.1402,0.1477,0.1591,0.1618,0.1779,0.1902,0.1964,0.2021,0.2119,0.2187,0.2244,0.2266,0.2372,0.2345,0.2351,0.2271,0.2227,0.2213,0.221,0.2268,0.227,0.2271,0.2271,0,0.1053,0.1079,0.1164,0.124,0.1329,0.1371,0.1446,0.1524,0.1597,0.1785,0.1801,0.1954,0.2085,0.2114,0.2164,0.2182,0.2147,0.2074,0.2094,0.2107,0.2002,0.1916,0.1864,0,0,0,0,0,0.1002,0.1021,0.108,0.1151,0.123,0.1284,0.1405,0.1481,0.1629,0.1627,0.1706,0.1787,0.1866,0.1951,0.1934,0.2092,0.216,0.2063,0.2086,0.2205,0.2218,0.2112,0,0,0,0,0,0,0.0965,0.1014,0.1043,0.1052,0.1083,0.1157,0.1231,0.1337,0.1345,0.1502,0.1557,0.1677,0.1786,0.1851,0.1894,0.1922,0.1902,0.2163,0.2159,0.2198,0.2209,0.222,0.2116,0,0,0,0,0]},{"header":{"parameterUnit":"m.s-1","parameterCategory":2,"la1":30.2991,"la2":30.254,"lo1":-89.0895,"lo2":-89.0444,"dy":0.0017,"dx":0.0017,"nx":28,"ny":28,"refTime":"2024-05-23T03:00:00:Z","depth":"4","parameterNumber":3,"parameterNumberName":"V-component_of_CURRENTS"},"data":[0,0,0,0,0,0,0,0,0,0,0,0,0,0,0,0,0,0,0,0,0,0,0,0,0,0,0,0,0,0,0,0,0,0,0,0,0,0,0,0,0,0,0,0,0,0,0,0,0,0,0,0,0,0,0,0,0,0,-0.009,-0.0091,0,-0.0142,-0.0142,-0.0143,-0.0185,-0.0185,-0.0185,-0.0186,-0.0289,-0.0291,-0.0294,0,0,0,0,0,0,0,0,0,0,0,0,0,-0.0074,-0.0074,-0.009,-0.0091,-0.0091,-0.0141,-0.0142,-0.0143,-0.0185,-0.0185,-0.0185,-0.0186,-0.0288,-0.0291,-0.0294,0,0,0,0,0,0,0,0,0,0,0,0,0,-0.0099,-0.0074,-0.009,-0.0118,-0.012,-0.0141,-0.0142,-0.0143,-0.0185,-0.0185,-0.0186,-0.0186,-0.0287,-0.0291,-0.0294,-0.0306,0,0,-0.0306,-0.0307,0,0,0,0,0,0,0,0,-0.0098,-0.01,-0.0113,-0.0116,-0.0119,-0.0157,-0.0174,-0.02,-0.0184,-0.0161,-0.0186,-0.0186,-0.0249,-0.0255,-0.0264,-0.0311,-0.0316,-0.0306,-0.0308,-0.031,-0.0311,0,0,0,0,0,0,0,-0.0096,-0.0098,-0.0112,-0.0114,-0.0117,-0.0143,-0.0147,-0.018,-0.0203,-0.0163,-0.0166,-0.017,-0.0251,-0.0261,-0.0267,-0.0317,-0.0306,-0.0309,-0.0311,-0.0313,-0.0396,-0.0396,0,0,0,0,0,0,-0.0085,-0.0096,-0.011,-0.0113,-0.0109,-0.0142,-0.0147,-0.0145,-0.0202,-0.021,-0.017,-0.0172,-0.0254,-0.0263,-0.0271,-0.0292,-0.031,-0.0313,-0.0315,-0.0396,-0.0396,-0.0396,0,0,0,0,0,0,-0.0084,-0.0085,-0.0108,-0.0106,-0.011,-0.0142,-0.0139,-0.0145,-0.0159,-0.0206,-0.0216,-0.0178,-0.0255,-0.0266,-0.0299,-0.0296,-0.0315,-0.0318,-0.0396,-0.0396,-0.0396,-0.0331,0,0,0,0,0,0,-0.0083,-0.0084,-0.0082,-0.0104,-0.011,-0.0117,-0.0139,-0.0146,-0.016,-0.0164,-0.0216,-0.0226,-0.0256,-0.0293,-0.0302,-0.0301,-0.0321,-0.0396,-0.0396,-0.0396,-0.0333,-0.0329,-0.0325,0,0,0,0,0,-0.0082,-0.0071,-0.0081,-0.0083,-0.0104,-0.0117,-0.0122,-0.0147,-0.016,-0.0163,-0.0197,-0.0224,-0.03,-0.0296,-0.0307,-0.0307,-0.0396,-0.0396,-0.0396,-0.0335,-0.0329,-0.0325,0,0,0,0,0,0,-0.0063,-0.0075,-0.0087,-0.008,-0.0097,-0.0123,-0.0127,-0.0145,-0.0173,-0.0178,-0.0224,-0.0236,-0.0264,-0.0295,-0.0289,-0.0332,-0.0353,-0.0356,-0.0303,-0.0298,-0.0295,-0.0274,-0.0324,0,0,0,0,0,-0.0057,-0.0052,-0.0072,-0.0068,-0.0073,-0.01,-0.011,-0.0126,-0.0152,-0.0165,-0.0201,-0.024,-0.0272,-0.0292,-0.0326,-0.0349,-0.0376,-0.0357,-0.0353,-0.0349,-0.0341,-0.0379,-0.0377,-0.0397,-0.0397,-0.0397,0,0,-0.0049,-0.0055,-0.0053,-0.0064,-0.0078,-0.0079,-0.0108,-0.0116,-0.0119,-0.0172,-0.019,-0.0228,-0.0276,-0.0299,-0.0315,-0.0325,-0.0358,-0.035,-0.0346,-0.034,-0.0378,-0.0376,-0.0375,-0.0397,-0.0397,-0.0397,0,0,-0.0025,-0.0034,-0.0022,-0.0032,-0.0048,-0.0063,-0.0063,-0.0089,-0.0104,-0.0124,-0.0163,-0.0194,-0.0246,-0.0275,-0.0297,-0.0293,-0.0336,-0.031,-0.0274,-0.031,-0.0308,-0.0307,-0.0335,-0.0337,-0.0308,-0.0308,-0.0308,0,-0.0017,-0.0004,-0.0022,-0.0015,-0.0019,-0.0052,-0.0043,-0.0059,-0.0094,-0.0103,-0.0122,-0.0191,-0.0232,-0.0258,-0.0257,-0.0282,-0.0309,-0.0285,-0.0303,-0.0303,-0.0303,-0.0331,-0.0334,-0.0305,-0.0305,-0.0305,-0.0306,0,0.0013,0.002,0.0027,0.0027,0.0021,0.0023,0.0001,-0.0009,-0.0032,-0.0053,-0.0084,-0.0137,-0.0177,-0.0197,-0.0226,-0.0246,-0.0267,-0.0292,-0.031,-0.0296,-0.0328,-0.0332,-0.03,-0.0301,-0.0302,-0.0303,0,0,0.0037,0.0047,0.0048,0.0056,0.0043,0.0043,0.0042,0.0031,0.0033,-0.0008,-0.0015,-0.0071,-0.01,-0.0128,-0.0172,-0.0203,-0.0226,-0.0242,-0.0246,-0.0259,-0.0303,-0.03,-0.0305,-0.0257,-0.0257,-0.0257,-0.0323,0,0.0063,0.009,0.0087,0.0108,0.0117,0.0096,0.01,0.0085,0.0063,0.0049,-0.0004,-0.0029,-0.0074,-0.0093,-0.013,-0.0205,-0.0235,-0.0206,-0.0323,-0.0326,-0.0317,-0.0309,-0.0259,-0.0326,-0.0327,-0.0328,-0.0328,0,0.009,0.0105,0.0135,0.015,0.0153,0.0164,0.0165,0.0165,0.0139,0.0122,0.0088,0.0042,-0.0007,-0.0049,-0.0157,-0.0138,-0.0209,-0.0268,-0.0272,-0.0294,-0.0331,-0.0346,-0.0336,-0.0336,-0.0335,-0.0335,-0.0334,0,0.0111,0.0137,0.0163,0.0167,0.018,0.0194,0.0201,0.0189,0.0194,0.017,0.0164,0.0097,0.006,-0.0033,-0.0152,-0.0157,-0.0273,-0.0299,-0.0363,-0.0364,-0.0375,-0.0376,-0.0371,-0.0371,-0.0371,-0.0371,-0.0371,0,0.0135,0.0155,0.018,0.0194,0.023,0.0228,0.0261,0.0256,0.0254,0.0264,0.0206,0.0188,0.006,-0.0024,-0.0132,-0.0255,-0.0261,-0.035,-0.0379,-0.0347,-0.0343,-0.0378,-0.0378,-0.0373,-0.0373,-0.0372,-0.0372,0,0.0146,0.0164,0.0196,0.0227,0.0242,0.0266,0.0305,0.0321,0.0321,0.033,0.0324,0.0251,0.0143,0.0013,-0.0144,-0.0226,-0.0347,-0.0392,-0.0336,-0.0362,-0.0417,-0.0413,-0.0461,-0.0462,-0.0462,-0.0462,-0.0462,0,0.0153,0.0172,0.022,0.0241,0.0259,0.0301,0.0328,0.0351,0.037,0.0364,0.0364,0.0277,0.0211,0.0011,-0.0139,-0.0331,-0.0364,-0.042,-0.0424,-0.0402,-0.0426,-0.0421,-0.0417,-0.0463,-0.0463,-0.0463,-0.0463,0,0.0154,0.0173,0.0194,0.0245,0.0284,0.0329,0.0373,0.0402,0.0424,0.0429,0.0407,0.0307,0.0185,0.0021,-0.0127,-0.0271,-0.0377,-0.0424,-0.0425,-0.0429,-0.0405,-0.0427,-0.0422,-0.0465,-0.0464,-0.0464,-0.0464,0,0.0142,0.0155,0.0183,0.023,0.0275,0.0325,0.0368,0.0401,0.043,0.0445,0.0434,0.0314,0.025,0.005,-0.0091,-0.0224,-0.0265,-0.0305,-0.0312,-0.0313,-0.0255,-0.0202,-0.0216,0,0,0,0,0,0.0117,0.0125,0.0163,0.0206,0.0255,0.0292,0.0368,0.0411,0.0458,0.0456,0.0454,0.0348,0.0157,0.007,-0.0063,-0.0131,-0.0314,-0.0293,-0.0369,-0.0471,-0.047,-0.0428,0,0,0,0,0,0,0.0092,0.0111,0.0142,0.0172,0.0206,0.0263,0.0323,0.0371,0.0383,0.0417,0.0323,0.0304,0.0114,0.0224,-0.0073,-0.0114,-0.0181,-0.0376,-0.0379,-0.0472,-0.0471,-0.047,-0.0426,0,0,0,0,0]}]]